Location: Altmatt
(47.1333°N, 8.7000°E)
Time: 02:52:49
(UTC+00:00)

SPOT 5 - Pass Details

Date: 13 July 2020
Orbit: 622 x 815 km, 98.3° (Epoch: 04 August)

Event Time Altitude Azimuth Distance (km) Brightness Sun altitude
Exits shadow 21:04:59 19° 167° (SSE) 1,693 4.2 -13.7°
Maximum altitude 21:08:32 85° 255° (WSW) 705 2.8 -14.1°
Drops below altitude 10° 21:13:09 10° 345° (NNW) 2,109 6.5 -14.5°
Sets 21:15:20 0° 346° (NNW) 3,002 7.5 -14.7°
